Temperature
11 12 12 13 13 13 13 13 13 13 14 14 14 14 14 14 14 14 14 14 14 14 15 15 15 15 15 15 15 15 15 15 15 15 15 15 15 15 15 15 15 15 15
11 11 12 12 12 13 13 13 13 13 13 13 13 14 14 14 14 14 14 14 14 14 14 14 15 15 15 15 15 15 15 15 15 15 15 15 15 15 15 15 15 15 15
11 11 12 12 12 12 12 12 13 13 13 13 13 13 13 13 13 13 14 14 14 14 14 14 14 14 14 15 15 15 15 14 14 14 14 14 14 15 15 15 15 15 15
11 11 12 12 12 12 12 12 12 12 12 13 13 13 13 13 13 13 13 13 14 14 14 14 14 14 14 14 14 14 14 14 14 14 14 14 14 14 14 15 15 15 15
10 11 11 11 11 11 11 12 12 12 12 12 12 12 13 13 13 13 13 13 13 13 13 13 14 14 14 14 14 14 14 14 14 14 14 14 14 14 14 14 14 14 14
10 10 11 11 11 11 11 11 11 12 12 12 12 12 12 12 13 13 13 13 13 13 13 13 13 13 14 14 13 14 14 14 14 13 13 14 14 14 14 14 14 14 14
10 10 10 10 11 11 11 11 11 11 11 12 12 12 12 12 12 12 12 12 12 13 13 13 13 13 13 13 13 13 13 13 13 13 13 13 13 13 14 14 14 14 14
9 10 10 10 10 11 11 11 11 11 11 11 11 11 11 12 12 12 12 12 12 12 12 12 12 13 13 13 13 13 13 13 13 13 13 13 13 13 13 13 14 14 14
9 9 9 10 10 10 10 10 10 10 10 11 11 11 11 11 11 11 11 12 12 12 12 12 12 12 12 12 12 12 12 12 12 12 13 13 13 13 13 13 13 13 13
9 9 9 9 9 9 10 10 10 10 10 10 10 10 10 10 11 11 11 11 11 11 11 12 12 12 12 12 12 12 12 12 12 12 12 12 12 12 13 13 13 13 13
8 8 9 9 9 9 9 9 9 9 9 10 10 10 10 10 10 10 10 10 11 11 11 11 11 11 11 11 11 11 11 12 12 11 12 12 12 12 12 12 13 13 13
8 8 8 8 8 8 8 8 9 9 9 9 9 9 9 9 9 9 10 10 10 10 10 10 10 11 11 11 11 11 11 11 11 11 11 11 11 12 12 12 12 12 12
7 7 7 8 8 8 8 8 8 8 8 8 8 8 8 8 9 9 9 9 9 9 9 10 10 10 10 10 10 10 10 10 11 11 11 11 11 11 11 11 12 12 12
6 7 7 7 7 7 7 7 7 8 8 8 8 8 8 8 8 8 8 8 8 9 9 9 9 9 9 9 10 10 10 10 10 10 10 10 11 11 11 11 11 11 11
6 6 7 7 7 7 7 7 7 7 7 7 7 7 7 7 7 7 7 7 8 8 8 8 8 8 9 9 9 9 9 9 9 9 10 10 10 10 10 10 11 11 11
6 6 6 6 6 6 6 6 6 6 6 6 6 6 6 6 6 6 6 7 7 7 7 7 7 8 8 8 8 8 9 9 9 9 9 9 9 10 10 10 10 10 10
5 5 5 6 6 6 6 6 6 6 6 6 6 6 6 6 6 6 6 6 6 6 6 6 7 7 7 7 7 8 8 8 8 8 8 9 9 9 9 9 9 10 10
4 5 5 5 5 5 5 5 5 5 5 5 5 5 5 5 5 5 5 5 5 5 5 6 6 6 6 6 7 7 7 7 7 8 8 8 8 8 8 9 9 9 9
4 4 4 4 4 4 4 4 4 4 4 4 4 4 4 4 4 4 4 4 4 4 5 5 5 5 5 5 6 6 6 6 7 7 7 7 7 8 8 8 8 8 8
3 3 3 4 4 4 4 4 4 4 4 3 3 4 4 4 4 4 3 4 4 4 4 4 4 4 4 4 5 5 6 6 6 6 6 6 7 7 7 7 7 7 8
3 3 3 3 3 3 3 3 3 3 3 3 3 3 3 3 3 3 3 3 3 3 3 3 3 3 3 3 4 4 5 5 5 5 6 6 6 6 6 6 6 7 7
2 2 2 2 2 3 3 3 2 2 2 2 2 2 2 2 2 2 2 2 2 2 2 2 2 2 2 2 2 2 3 4 4 5 5 5 5 5 6 6 6 6 6
2 2 2 2 2 2 2 2 2 2 2 2 2 2 2 2 2 1 1 1 1 1 1 1 1 1 1 1 1 1 2 2 2 3 4 4 4 5 5 5 5 5 5
1 1 1 1 1 1 1 1 1 1 1 1 1 1 1 1 1 1 1 1 1 0 0 0 0 0 0 0 0 0 1 1 1 1 2 3 3 4 4 4 4 4 5
1 1 1 0 0 0 0 0 0 0 0 0 0 0 0 -0 -0 -0 -0 -0 -0 -0 -0 -0 -0 -0 -1 -1 -0 -0 -0 0 0 0 1 1 2 2 3 3 4 4 4
0 0 0 -0 -0 -0 -0 -0 -0 -1 -1 -1 -1 -1 -1 -1 -1 -1 -1 -1 -1 -1 -1 -1 -1 -1 -1 -1 -1 -1 -1 -1 -0 -0 -0 0 1 1 2 2 3 3 3
Wind_Speed
5 9 9 11 12 12 12 13 13 14 14 14 14 14 15 14 14 14 14 15 15 15 14 14 13 12 13 13 13 13 12 12 12 12 12 12 13 13 13 13 12 12 14
5 8 9 10 11 12 13 13 13 14 14 14 14 14 14 14 14 15 14 15 15 15 15 14 13 13 12 13 13 12 11 11 10 10 10 11 12 12 13 13 12 11 13
7 8 9 10 11 12 13 13 14 14 14 14 14 14 14 15 15 14 14 14 15 15 15 15 14 13 13 12 12 12 11 10 9 7 7 8 10 12 12 13 12 12 12
7 8 9 10 11 12 13 13 14 14 14 14 14 14 14 15 15 15 15 14 15 15 15 14 14 13 12 11 11 11 10 10 8 7 6 8 9 11 11 11 11 11 11
7 9 9 10 11 12 13 13 14 14 14 15 14 14 14 15 15 15 15 15 15 14 14 13 13 13 12 11 11 10 10 10 9 7 7 9 9 10 10 10 10 10 10
8 10 10 11 12 12 13 13 14 14 14 15 15 14 14 14 15 15 15 15 15 14 14 13 12 12 12 12 11 11 10 10 9 7 8 9 9 9 9 9 9 9 9
8 10 9 11 12 13 13 14 14 14 14 14 15 15 14 14 15 15 15 15 14 14 14 14 13 11 11 11 11 11 10 10 8 8 9 9 9 9 9 9 8 8 8
8 10 10 11 12 12 13 13 13 14 14 14 14 14 14 14 14 14 14 14 14 14 14 13 13 11 11 10 10 10 10 9 7 8 8 9 9 9 8 8 7 7 7
9 9 10 10 10 11 12 12 13 13 13 13 14 13 13 12 13 13 13 13 13 13 13 13 12 11 10 9 9 10 9 9 8 6 6 8 8 8 8 7 7 6 6
8 9 9 9 10 9 9 10 11 12 12 12 13 13 12 12 12 12 12 12 12 12 12 12 11 10 9 8 8 9 9 8 7 6 6 7 8 7 7 6 6 5 5
7 7 8 9 9 9 8 8 9 10 11 11 12 12 12 11 10 10 11 11 11 11 11 11 11 10 9 8 8 8 7 6 6 5 6 7 7 6 6 6 5 4 4
5 5 7 8 8 8 8 7 7 8 9 10 11 11 10 10 10 10 9 10 11 10 10 10 11 10 9 8 8 7 6 7 6 5 5 6 5 5 5 4 4 3 3
4 5 6 7 8 8 7 7 7 7 8 9 11 11 11 10 10 9 9 9 10 10 9 9 9 9 9 9 8 6 6 6 5 4 4 4 3 3 3 4 3 3 2
5 5 5 7 7 8 8 7 7 7 7 8 9 12 11 8 8 9 8 9 9 9 9 9 8 9 9 9 9 7 7 6 5 4 3 3 2 2 2 2 3 2 1
4 4 4 6 7 7 7 7 7 7 7 8 9 10 11 8 7 8 8 8 9 9 9 8 8 8 8 8 8 7 6 6 5 4 3 2 2 1 2 2 2 2 2
4 4 3 4 6 7 6 6 6 7 7 8 9 9 10 9 8 7 7 7 8 9 9 8 7 6 5 6 6 7 6 6 5 4 3 3 1 1 2 2 3 3 2
3 3 3 4 6 6 6 7 6 7 7 7 8 9 10 9 9 8 7 6 7 9 9 8 7 6 4 4 5 6 5 6 5 4 3 2 2 2 2 3 3 3 3
4 4 3 4 4 5 6 6 6 7 7 7 7 8 9 9 9 8 6 6 8 8 8 5 4 4 4 4 4 5 5 5 5 4 3 2 2 2 2 3 4 3 4
4 4 3 3 3 4 5 5 5 5 6 7 7 8 8 9 9 8 7 8 8 7 6 5 3 4 4 4 4 4 4 4 4 4 3 2 2 2 2 2 3 3 4
4 3 3 3 3 4 4 4 4 4 5 6 7 8 8 8 9 8 7 8 8 5 4 4 4 4 3 4 5 5 5 5 3 2 3 2 2 1 1 1 2 3 3
4 3 3 3 3 3 2 2 3 3 3 4 6 7 8 8 8 8 7 7 7 4 4 4 4 4 3 3 3 4 5 4 3 2 1 0 1 2 2 2 2 2 2
4 3 3 3 2 3 2 2 2 2 2 3 5 6 8 9 9 8 7 6 6 4 5 4 4 3 3 3 3 3 3 3 2 3 2 2 1 1 2 3 3 2 2
3 2 2 2 2 2 2 2 2 2 2 3 3 4 7 8 8 8 7 7 6 5 4 4 4 3 3 3 2 1 2 2 4 3 3 2 3 2 2 3 3 4 4
3 3 2 2 2 2 2 2 2 2 2 2 3 3 5 7 7 7 7 6 6 5 4 4 4 3 3 3 3 3 3 3 2 3 3 3 4 4 3 3 4 4 4
4 3 2 2 2 2 2 2 2 2 2 2 3 3 3 5 7 7 7 6 5 5 5 5 5 4 3 3 3 3 4 4 3 4 6 4 3 3 4 4 4 3 4
3 3 2 2 1 1 2 1 1 2 3 3 4 4 3 3 5 7 7 7 6 5 5 5 5 5 4 4 4 3 3 3 3 4 5 6 6 4 4 4 4 4 5
Wind_Direction
22 20 22 24 31 36 38 41 42 42 43 44 44 44 42 40 40 41 42 43 44 45 47 49 51 54 54 53 54 54 54 56 59 63 63 64 70 71 70 70 68 79 84
18 24 31 34 37 40 43 44 45 44 43 42 43 43 42 41 41 42 41 42 44 44 46 49 49 52 54 54 54 52 49 48 53 58 60 66 72 71 72 70 69 80 84
27 32 39 42 42 44 47 48 48 47 45 43 43 43 42 43 43 43 42 43 44 43 44 45 48 50 52 52 53 49 42 37 37 48 57 69 76 74 74 73 75 80 84
35 38 40 48 47 48 50 50 50 49 47 46 45 45 44 44 43 43 43 43 44 44 44 44 46 48 49 48 49 46 38 28 29 36 49 66 73 76 75 75 77 79 82
45 46 46 53 52 52 52 52 52 51 49 47 46 46 46 46 44 43 43 43 43 42 43 45 45 45 44 43 41 38 32 24 30 26 46 59 68 73 77 77 76 78 78
48 51 53 58 56 55 53 52 52 52 50 48 47 46 46 45 45 44 43 41 40 40 41 42 42 42 40 38 35 30 24 19 26 26 44 61 68 72 76 76 76 78 77
45 49 55 57 57 55 52 52 50 50 48 47 46 45 44 43 43 42 41 39 37 36 36 36 37 38 36 33 29 24 20 18 26 36 43 56 64 72 74 73 73 76 76
52 51 53 54 54 53 51 50 49 48 46 46 45 43 42 42 43 41 39 38 36 34 32 31 32 33 32 28 23 17 15 11 17 39 49 56 58 62 68 70 68 73 74
55 52 47 43 50 51 50 49 48 47 45 44 43 40 39 40 41 40 36 35 35 33 29 26 26 28 27 22 19 13 7 0 7 28 45 58 60 59 61 64 66 71 74
54 50 42 38 39 45 49 49 47 45 43 41 40 36 35 35 36 36 32 30 31 30 28 24 21 22 20 13 7 360 358 358 3 29 43 60 63 56 54 56 59 61 71
50 43 38 34 31 32 43 47 45 43 40 40 36 31 30 27 27 31 28 25 25 24 23 20 16 15 11 5 358 357 4 7 3 31 47 63 64 55 52 47 50 57 64
52 41 34 30 25 23 31 39 40 42 40 39 35 27 27 24 21 25 21 19 18 17 15 13 11 10 3 359 356 0 6 1 5 26 49 64 62 52 47 40 38 50 58
67 51 40 32 26 24 24 30 35 37 40 39 32 27 25 24 19 19 19 16 12 13 10 6 3 0 2 2 3 4 357 357 7 22 48 61 56 43 34 29 24 24 42
72 52 42 35 33 27 24 24 32 34 36 38 33 30 25 21 17 11 14 13 10 7 3 1 356 358 359 359 357 354 351 359 1 13 38 54 41 26 12 11 9 6 7
79 62 46 38 36 30 26 24 29 30 31 34 36 33 28 20 13 8 5 8 7 6 360 355 354 355 356 353 348 346 347 347 346 1 12 26 29 13 343 337 341 333 319
89 78 58 45 39 33 32 29 29 28 30 37 35 31 29 23 13 5 1 359 4 2 356 353 350 349 347 348 338 337 341 337 337 351 348 343 331 312 304 298 310 306 298
95 83 69 62 46 36 32 25 29 25 31 38 33 29 29 24 14 3 358 354 359 357 352 351 349 346 344 342 330 330 335 332 326 327 328 335 326 303 291 293 290 297 291
99 86 63 53 49 40 38 27 27 29 28 32 32 29 26 19 13 4 356 352 354 354 350 345 350 342 338 335 327 322 321 318 304 303 311 320 316 305 305 311 301 298 288
101 97 83 60 55 42 38 32 28 35 30 27 30 31 22 14 11 7 356 352 353 351 349 344 348 338 333 333 323 316 310 304 305 303 292 290 291 289 295 297 306 314 307
108 104 93 68 53 50 41 28 20 29 26 25 26 27 20 15 12 7 360 355 352 346 340 338 334 333 328 327 322 316 300 282 281 276 269 283 298 298 319 324 313 303 303
119 106 95 75 55 51 42 26 15 12 10 17 19 21 18 13 11 9 2 354 351 344 336 336 335 331 335 342 333 321 301 276 267 270 288 319 328 340 347 327 317 302 295
130 114 94 81 72 61 41 22 12 9 2 9 8 16 17 11 8 7 6 357 353 348 341 339 340 330 328 348 331 322 315 318 330 313 317 290 286 346 333 302 305 302 293
129 121 103 76 76 65 32 30 28 17 355 4 5 9 7 3 2 2 0 356 352 351 334 332 333 335 320 320 318 304 300 295 324 298 295 310 322 309 305 310 300 299 292
140 124 107 83 73 64 45 48 37 19 360 344 343 342 352 357 358 358 354 351 349 348 339 331 344 333 318 306 307 294 288 291 288 305 302 313 313 310 298 303 305 303 307
128 124 122 104 81 71 62 59 27 9 352 348 348 343 350 354 355 353 350 348 346 345 344 337 329 326 319 307 303 301 301 302 278 272 286 292 296 294 302 301 292 288 295
123 122 127 118 84 73 72 54 23 2 351 348 347 341 344 346 348 350 348 350 345 342 339 331 322 310 305 298 295 290 287 283 284 285 285 293 292 288 295 296 290 282 281
Height
1537 1537 1537 1536 1536 1536 1536 1535 1535 1535 1535 1535 1535 1535 1535 1534 1534 1534 1534 1534 1534 1534 1534 1534 1534 1534 1534 1534 1535 1535 1535 1536 1536 1536 1537 1537 1537 1537 1537 1538 1538 1538 1539
1537 1537 1537 1536 1536 1536 1536 1536 1536 1535 1535 1535 1535 1535 1535 1535 1535 1535 1535 1535 1535 1535 1535 1535 1535 1535 1535 1535 1535 1536 1536 1537 1537 1538 1538 1538 1539 1539 1539 1539 1540 1540 1541
1537 1536 1536 1536 1536 1536 1536 1536 1536 1536 1535 1535 1535 1535 1535 1535 1535 1535 1535 1535 1535 1535 1535 1535 1535 1535 1536 1536 1536 1537 1537 1538 1538 1539 1539 1540 1540 1540 1540 1541 1541 1541 1542
1536 1536 1536 1536 1536 1536 1536 1536 1536 1536 1536 1535 1535 1535 1535 1535 1535 1535 1535 1535 1535 1535 1536 1536 1536 1536 1536 1537 1537 1538 1538 1539 1539 1540 1540 1540 1541 1541 1541 1542 1542 1542 1543
1536 1535 1536 1536 1536 1536 1535 1535 1536 1536 1536 1536 1536 1536 1536 1536 1535 1536 1535 1535 1535 1536 1536 1536 1536 1536 1537 1537 1538 1538 1539 1539 1540 1540 1541 1541 1541 1542 1542 1542 1543 1543 1544
1535 1535 1535 1535 1536 1535 1535 1535 1536 1536 1536 1536 1536 1536 1536 1536 1536 1535 1535 1535 1535 1536 1536 1536 1536 1536 1537 1537 1538 1538 1539 1540 1540 1540 1541 1541 1541 1542 1542 1543 1543 1544 1544
1534 1535 1535 1535 1535 1535 1535 1535 1535 1535 1536 1535 1536 1536 1536 1536 1535 1535 1535 1535 1535 1536 1536 1536 1536 1537 1537 1537 1538 1539 1539 1540 1540 1540 1541 1541 1542 1542 1542 1543 1544 1544 1545
1534 1534 1534 1535 1535 1535 1535 1535 1535 1535 1535 1535 1535 1535 1535 1535 1535 1535 1535 1535 1535 1535 1536 1536 1536 1536 1537 1537 1538 1538 1539 1539 1540 1540 1540 1541 1542 1542 1542 1543 1543 1544 1545
1534 1534 1534 1534 1534 1535 1535 1535 1535 1535 1535 1535 1535 1535 1535 1535 1535 1535 1535 1535 1535 1535 1535 1535 1536 1536 1536 1537 1537 1538 1538 1539 1539 1540 1540 1541 1541 1541 1542 1542 1543 1543 1544
1533 1533 1534 1534 1534 1534 1534 1534 1534 1534 1534 1534 1534 1534 1534 1534 1534 1534 1534 1534 1534 1534 1534 1535 1535 1535 1535 1536 1536 1537 1537 1538 1538 1539 1539 1540 1540 1540 1541 1541 1542 1542 1543
1532 1533 1533 1533 1533 1533 1533 1534 1534 1534 1534 1534 1533 1533 1533 1533 1533 1533 1533 1533 1533 1533 1533 1533 1534 1534 1534 1535 1535 1536 1536 1537 1537 1538 1538 1538 1539 1539 1539 1540 1541 1541 1542
1531 1532 1532 1532 1533 1533 1533 1533 1533 1533 1533 1533 1532 1532 1532 1532 1532 1532 1532 1532 1532 1532 1532 1532 1532 1532 1533 1533 1533 1534 1534 1535 1536 1536 1536 1537 1537 1537 1538 1538 1539 1540 1541
1531 1531 1531 1532 1532 1532 1532 1532 1532 1532 1532 1532 1531 1531 1531 1531 1531 1530 1530 1530 1530 1530 1530 1530 1530 1531 1531 1531 1532 1532 1532 1533 1533 1534 1534 1535 1535 1535 1536 1536 1537 1538 1539
1529 1530 1530 1530 1531 1531 1531 1531 1531 1531 1530 1530 1530 1530 1529 1529 1529 1529 1528 1528 1528 1528 1528 1528 1528 1529 1529 1529 1530 1530 1530 1531 1531 1531 1532 1532 1533 1533 1534 1534 1535 1536 1537
1528 1529 1529 1529 1529 1529 1530 1530 1530 1530 1529 1529 1529 1529 1528 1527 1527 1527 1527 1526 1526 1526 1526 1526 1526 1526 1526 1527 1527 1527 1528 1528 1529 1529 1529 1530 1530 1531 1531 1532 1533 1534 1534
1527 1527 1528 1528 1528 1528 1528 1528 1529 1529 1529 1528 1528 1527 1526 1526 1525 1525 1525 1524 1524 1524 1523 1523 1523 1523 1524 1524 1524 1524 1525 1525 1525 1526 1526 1527 1528 1528 1529 1529 1530 1531 1532
1526 1526 1527 1527 1527 1527 1527 1527 1527 1527 1527 1527 1526 1525 1525 1525 1524 1523 1523 1522 1522 1521 1521 1521 1521 1521 1520 1521 1521 1521 1521 1522 1522 1522 1523 1523 1524 1525 1526 1526 1527 1528 1529
1524 1524 1525 1525 1525 1526 1526 1526 1526 1525 1525 1525 1524 1524 1523 1523 1522 1522 1521 1520 1520 1519 1519 1518 1518 1517 1517 1517 1517 1517 1518 1518 1518 1519 1519 1520 1520 1521 1522 1523 1524 1524 1525
1522 1522 1523 1524 1524 1524 1524 1524 1524 1524 1523 1523 1523 1522 1522 1521 1520 1520 1519 1518 1517 1517 1516 1516 1515 1515 1514 1513 1513 1513 1514 1514 1514 1515 1515 1516 1517 1517 1518 1519 1520 1521 1521
1520 1521 1521 1522 1523 1523 1523 1523 1522 1522 1522 1521 1521 1520 1520 1519 1518 1517 1517 1516 1516 1515 1514 1513 1513 1512 1512 1511 1510 1510 1510 1510 1510 1511 1511 1512 1513 1514 1514 1515 1516 1517 1518
1518 1519 1519 1520 1521 1521 1521 1520 1520 1520 1520 1520 1519 1519 1518 1517 1516 1515 1514 1514 1513 1512 1512 1511 1510 1509 1509 1508 1508 1506 1506 1506 1506 1507 1507 1508 1510 1510 1511 1511 1512 1513 1513
1516 1517 1517 1518 1519 1519 1519 1519 1519 1519 1518 1518 1517 1517 1516 1515 1514 1513 1512 1512 1511 1510 1510 1509 1508 1507 1506 1506 1506 1505 1503 1503 1502 1503 1504 1505 1506 1506 1507 1508 1508 1508 1509
1514 1515 1516 1517 1517 1517 1517 1517 1517 1517 1516 1516 1515 1514 1514 1513 1512 1511 1510 1509 1509 1508 1507 1507 1506 1505 1504 1504 1505 1506 1504 1501 1500 1499 1499 1501 1501 1502 1503 1504 1504 1504 1505
1512 1514 1514 1515 1515 1516 1515 1515 1514 1514 1514 1513 1513 1512 1511 1510 1510 1509 1508 1507 1506 1505 1505 1504 1503 1502 1502 1501 1502 1502 1503 1501 1500 1496 1495 1496 1497 1497 1498 1499 1499 1500 1500
1511 1512 1513 1513 1513 1513 1513 1513 1513 1512 1512 1512 1511 1510 1509 1508 1507 1506 1505 1504 1504 1503 1502 1501 1501 1500 1499 1499 1498 1498 1498 1497 1497 1496 1493 1492 1492 1493 1493 1494 1494 1495 1495
1510 1510 1511 1511 1511 1511 1511 1511 1511 1510 1510 1509 1508 1507 1506 1505 1505 1504 1503 1502 1501 1500 1499 1498 1497 1497 1496 1495 1495 1494 1494 1494 1493 1493 1491 1489 1488 1487 1488 1488 1489 1489 1490